Regional Weather Roundup
Issued by NWS Sterling, VA

Home | Current Version | Previous Version | Graphics & Text | Print | Product List | Glossary On
Versions: 1 2 3 4 5 6 7 8 9 10 11 12 13 14 15 16 17 18 19 20 21 22 23 24 25 26 27 28
000
ASUS41 KLWX 071910
RWRLWX

REGIONAL WEATHER ROUNDUP
NATIONAL WEATHER SERVICE BALTIMORE MD/WASHINGTON DC
200 PM EST WED DEC 07 2016

Note: "FAIR" indicates few or no clouds below 12,000 feet
with no significant weather and/or obstructions to visibility.
 TC=TEMPERATURE CELSIUS

 * =Non NWS site. Station does not report precipitation (e.g. rain,
    snow, etc.), thunder, or fog.

DCZ001-MDZ009-015-VAZ040>042-051-053>054-072000-
WASHINGTON METRO

CITY           SKY/WX    TMP DP  RH WIND       PRES   REMARKS
WASHINGTON NAT PTSUNNY   51  30  44 NW15      30.04S
DULLES         MOSUNNY   50  31  48 NW12      30.04S
ANDREWS AFB    SUNNY     50  32  50 NW12G22   30.02R
FT BELVOIR     SUNNY     52  31  44 W6        30.04R
QUANTICO       MOSUNNY   52  29  41 NW12G18   30.05S
LEESBURG*      SUNNY     50  34  53 NW10      30.04F
MANASSAS*      SUNNY    N/A N/A N/A N12       30.05S
GAITHERSBURG*  SUNNY     46  30  53 NW12      30.07S

$$

MDZ006>007-011-014-072000-
BALTIMORE METRO

CITY           SKY/WX    TMP DP  RH WIND       PRES   REMARKS
BWI AIRPORT    MOSUNNY   50  35  56 NW12      30.02R
MD SCIENCE CTR   N/A     51  32  48 MISG      30.05R
ANNAPOLIS      MOSUNNY   51  38  60 NW8       30.02R

$$

MDZ012-015-019>023-072000-
MARYLAND EASTERN SHORE

CITY           SKY/WX    TMP DP  RH WIND       PRES   REMARKS
OCEAN CITY     CLOUDY    49  42  77 NW9       30.00R
SALISBURY      CLOUDY    49  41  74 NW13      30.00R
EASTON*        CLOUDY    50  39  66 N8        30.05S

$$

MDZ017>025-072000-
SOUTHERN MARYLAND

CITY           SKY/WX    TMP DP  RH WIND       PRES   REMARKS
PATUXENT RIVER MOSUNNY   51  38  60 NW12      30.02R
ST INIGOES     PTSUNNY   52  39  61 W7        30.01S
LEONARDTOWN*   NOT AVBL

$$

MDZ003>005-072000-
NORTH CENTRAL MARYLAND

CITY           SKY/WX    TMP DP  RH WIND       PRES   REMARKS
FREDERICK*     SUNNY     46  34  61 W9        30.07R
HAGERSTOWN APT SUNNY     49  27  42 W6        30.01S
WESTMINSTER*   MOSUNNY   45  32  61 W8        30.01R

$$

MDZ501>502-072000-
WESTERN MARYLAND

CITY           SKY/WX    TMP DP  RH WIND       PRES   REMARKS
OAKLAND*       NOT AVBL
CUMBERLAND*    NOT AVBL

$$

VAZ025>031-072000-
SHENANDOAH VALLEY

CITY           SKY/WX    TMP DP  RH WIND       PRES   REMARKS
WINCHESTER*    SUNNY     46  28  49 W9        30.02F
FRONT ROYAL*   FAIR      48  32  53 CALM      30.02S
LURAY*         FAIR      50  34  53 CALM      30.01F
NEW MARKET*    FAIR      51  30  45 SW5       30.01F
STAUNTON*      SUNNY     48  33  55 CALM      30.03S
WAYNESBORO*    FAIR      51  28  41 W6        30.00F

$$

WVZ021-048>050-054>055-072000-
EASTERN WEST VIRGINIA PANHANDLE

CITY           SKY/WX    TMP DP  RH WIND       PRES   REMARKS
MARTINSBURG    SUNNY     48  26  42 W12       30.02S
PETERSBURG*    SUNNY     51  24  34 W7        30.03S

$$

VAZ036>039-050-072000-
CENTRAL FOOTHILLS

CITY           SKY/WX    TMP DP  RH WIND       PRES   REMARKS
CHARLOTTESVILL SUNNY     54  34  46 CALM      30.01F
CULPEPER*      SUNNY     52  34  49 CALM      30.04S
ORANGE*          N/A     54  37  54 CALM      30.04S
GORDONSVILLE*  FAIR      53  36  52 CALM      30.02S
WARRENTON*     FAIR      53  26  35 NW6       30.03F

$$

VAZ055>057-072000-
NORTH AND CENTRAL PIEDMONT

CITY           SKY/WX    TMP DP  RH WIND       PRES   REMARKS
FREDERICKSBRG* SUNNY     53  32  45 NW5       30.02F
STAFFORD*      SUNNY     51  33  48 NW7       30.07S

$$

NCZ024-NYZ072-PAZ021-071-VAZ022-071-072000-
OTHER REGIONAL OBSERVATIONS

CITY           SKY/WX    TMP DP  RH WIND       PRES   REMARKS
NEW YORK CITY  CLOUDY    43  38  82 W3        29.99F
PHILADELPHIA   CLOUDY    47  37  68 NW14G22   30.00S
PITTSBURGH     PTSUNNY   41  23  48 W12       30.03F
ROANOKE        SUNNY     54  27  35 W9        30.03F
RICHMOND       MOSUNNY   55  39  54 N9        30.02S
RALEIGH        MOSUNNY   58  39  49 VRB5      30.02F

$$

ANZ530>537-072000-
MARINE OBSERVATIONS

STATION/POSITION TIME  TEMP    WIND        PRES
                       AIR SEA DIR/SP/G
                 (UTC) (F)     (DEG/KT/KT) (MB)
THOMAS PT LIGHT  1900   48 48  340/  6/  7   N/A
BALT KEY BRIDGE  1842   48     290/  7/  8 1016.5R
COVE POINT       1842   49      10/  6/ 10 1017.0R
LEWISETTA        1842   50 49  340/ 11/ 13 1016.4R
SOLOMONS ISLAND  1842   50 51  320/  8/ 12   N/A
PINEY POINT      1836          320/ 13/ 14   N/A

$$





USA.gov is the U.S. government's official web portal to all federal, state and local government web resources and services.